GW1008 Weather Reports


time (UTC)temp
C
wind
direction
speed
KPH
gust
KPH
rain 1hr
cm
rain 24hr
cm
rain mn
cm
humidity
%
barometer
mb
20260508164011 11 0 0.0 8.0 0.03 0.03 0.03 61 1016.6
20260508163512 11 0 0.0 6.4 0.03 0.03 0.03 64 1016.6
20260508163029 11 0 0.0 6.4 0.03 0.03 0.03 62 1016.5
20260508162508 11 0 0.0 0.0 0.00 0.00 0.00 67 1016.6
20260508162008 11 0 0.0 0.0 0.00 0.00 0.00 66 1016.4
20260508161535 11 0 0.0 0.0 0.00 0.00 0.00 66 1016.3
20260508161009 12 0 0.0 0.0 0.00 0.00 0.00 65 1016.4
20260508160510 12 0 0.0 8.0 0.00 0.00 0.00 61 1016.2
20260508160034 12 0 0.0 8.0 0.00 0.00 0.00 59 1016.2
20260508155510 12 0 0.0 16.1 0.00 0.03 0.00 59 1016.3
20260508155008 12 0 0.0 16.1 0.00 0.03 0.00 60 1016.1
20260508154530 12 248 0.0 6.4 0.00 0.03 0.00 63 1016.0
20260508154008 12 0 0.0 6.4 0.00 0.03 0.00 58 1016.0
20260508153511 12 0 0.0 6.4 0.00 0.03 0.00 58 1015.9
20260508153028 13 0 0.0 3.2 0.00 0.03 0.00 59 1015.8
20260508152508 13 0 0.0 4.8 0.00 0.03 0.00 58 1015.9
20260508152009 13 0 0.0 9.7 0.00 0.03 0.00 56 1015.7
20260508151528 13 0 0.0 11.3 0.00 0.03 0.00 55 1015.7
20260508151017 13 300 0.0 11.3 0.00 0.03 0.00 57 1015.7
20260508150508 13 0 0.0 8.0 0.00 0.03 0.00 54 1015.7
20260508150038 13 0 0.0 0.0 0.00 0.03 0.00 53 1015.6
20260508145509 13 0 0.0 0.0 0.00 0.05 0.00 52 1015.5
20260508145015 13 0 0.0 0.0 0.00 0.05 0.00 51 1015.4
20260508144539 13 0 0.0 0.0 0.00 0.05 0.00 51 1015.4
20260508144013 13 0 0.0 24.1 0.00 0.05 0.00 53 1015.4
20260508143515 13 0 0.0 24.1 0.00 0.05 0.00 51 1015.4
20260508143036 14 0 0.0 14.5 0.00 0.05 0.00 53 1015.4
20260508142509 14 0 0.0 4.8 0.00 0.05 0.00 52 1015.3
20260508142009 14 0 0.0 12.9 0.00 0.05 0.00 51 1015.3
20260508141529 14 0 0.0 12.9 0.00 0.05 0.00 51 1015.3
20260508141012 15 0 0.0 6.4 0.00 0.05 0.00 49 1015.1
20260508140508 15 0 0.0 6.4 0.00 0.05 0.00 49 1014.9
20260508140036 15 0 0.0 17.7 0.00 0.05 0.00 45 1015.0
20260508135513 15 0 0.0 17.7 0.00 0.05 0.00 48 1015.0
20260508135011 15 286 3.2 17.7 0.00 0.05 0.00 46 1014.9
20260508134530 15 0 0.0 14.5 0.00 0.05 0.00 47 1014.8
20260508134009 15 0 0.0 14.5 0.00 0.05 0.00 48 1014.7
20260508133511 15 0 0.0 6.4 0.00 0.05 0.00 52 1014.8
20260508133030 14 0 0.0 4.8 0.00 0.05 0.00 52 1014.7
20260508132512 14 0 0.0 6.4 0.00 0.05 0.00 52 1014.7
20260508132011 14 0 0.0 11.3 0.00 0.05 0.00 53 1014.8
20260508131527 13 0 0.0 16.1 0.00 0.05 0.00 52 1014.7
20260508131017 13 280 1.6 16.1 0.00 0.05 0.00 52 1014.7
20260508130510 13 227 0.0 14.5 0.00 0.05 0.00 52 1014.9
20260508130028 13 0 0.0 16.1 0.00 0.05 0.00 55 1014.7
20260508125509 13 0 0.0 16.1 0.00 0.05 0.00 55 1014.8
20260508125011 13 226 0.0 16.1 0.00 0.05 0.00 54 1014.7
20260508124530 13 0 0.0 12.9 0.00 0.05 0.00 55 1014.6
20260508124010 13 0 0.0 12.9 0.00 0.05 0.00 55 1014.7
20260508123510 13 0 0.0 9.7 0.00 0.05 0.00 56 1014.6
20260508123032 13 296 0.0 11.3 0.00 0.05 0.00 56 1014.6
20260508122510 13 0 0.0 11.3 0.00 0.05 0.00 56 1014.6
20260508122008 12 0 0.0 24.1 0.00 0.05 0.00 56 1014.6
20260508121530 12 0 1.6 24.1 0.00 0.05 0.00 56 1014.5
20260508121010 13 0 1.6 14.5 0.00 0.05 0.00 56 1014.7
20260508120510 13 0 0.0 8.0 0.00 0.05 0.00 58 1014.5
20260508120027 12 280 0.0 17.7 0.00 0.05 0.00 55 1014.5
20260508115510 12 0 1.6 17.7 0.00 0.05 0.00 57 1014.6
20260508115009 12 226 0.0 12.9 0.00 0.05 0.00 57 1014.5
20260508114534 12 232 0.0 16.1 0.00 0.05 0.00 58 1014.4
20260508114010 12 0 1.6 16.1 0.00 0.05 0.00 57 1014.4
20260508113509 12 0 0.0 8.0 0.00 0.05 0.00 59 1014.3
20260508113044 12 0 0.0 12.9 0.00 0.05 0.00 58 1014.3
20260508112509 12 0 0.0 16.1 0.00 0.05 0.00 59 1014.2
20260508112012 12 287 0.0 16.1 0.00 0.05 0.00 60 1014.3
20260508111530 12 290 0.0 11.3 0.00 0.05 0.00 60 1014.2
20260508111011 12 0 0.0 12.9 0.00 0.05 0.00 60 1014.2
20260508110508 12 0 1.6 14.5 0.00 0.05 0.00 59 1014.1
20260508110027 12 0 1.6 14.5 0.00 0.05 0.00 60 1014.1
20260508105511 12 0 1.6 19.3 0.00 0.05 0.00 60 1014.0
20260508105010 12 0 0.0 19.3 0.00 0.05 0.00 60 1013.9
20260508104532 12 0 0.0 12.9 0.00 0.05 0.00 60 1014.0
20260508104011 12 0 0.0 20.9 0.00 0.05 0.00 60 1014.0
20260508103511 12 0 1.6 20.9 0.00 0.05 0.00 58 1014.0
20260508103027 12 0 1.6 19.3 0.00 0.05 0.00 58 1013.9
20260508102517 12 0 0.0 9.7 0.00 0.05 0.00 61 1014.0
20260508102012 11 0 0.0 9.7 0.00 0.05 0.00 60 1014.0
20260508101535 11 0 0.0 12.9 0.00 0.05 0.00 60 1013.9
20260508101011 11 0 0.0 12.9 0.00 0.05 0.00 62 1014.0
20260508100509 11 280 0.0 11.3 0.00 0.05 0.00 63 1013.9
20260508100034 11 0 0.0 4.8 0.00 0.05 0.00 61 1013.9
20260508095517 11 0 0.0 12.9 0.00 0.05 0.00 62 1014.0
20260508095012 11 0 0.0 12.9 0.00 0.05 0.00 63 1013.8
20260508094528 10 237 0.0 12.9 0.00 0.05 0.00 62 1013.9
20260508094009 10 284 1.6 12.9 0.00 0.05 0.00 61 1013.8
20260508093511 10 0 0.0 1.6 0.00 0.05 0.00 63 1013.7
20260508093029 10 0 0.0 1.6 0.00 0.05 0.00 63 1013.7
20260508092512 10 0 0.0 12.9 0.00 0.05 0.00 64 1013.7
20260508092011 10 0 0.0 12.9 0.00 0.05 0.00 65 1013.7
20260508091530 10 0 0.0 17.7 0.00 0.05 0.00 64 1013.6
20260508091010 10 0 0.0 17.7 0.00 0.05 0.00 66 1013.6
20260508090517 10 261 1.6 14.5 0.00 0.05 0.00 66 1013.6
20260508090033 10 0 0.0 1.6 0.00 0.05 0.00 67 1013.5
20260508085508 10 0 0.0 11.3 0.00 0.05 0.00 68 1013.4
20260508085007 10 0 0.0 11.3 0.00 0.05 0.00 68 1013.5
20260508084526 9 0 0.0 11.3 0.00 0.05 0.00 67 1013.4
20260508084010 9 0 0.0 12.9 0.00 0.05 0.00 67 1013.4
20260508083510 9 0 0.0 12.9 0.00 0.05 0.00 69 1013.4
20260508083036 9 0 0.0 6.4 0.00 0.05 0.00 70 1013.4
20260508082517 9 0 0.0 4.8 0.00 0.05 0.00 71 1013.3
20260508082008 9 0 0.0 6.4 0.00 0.05 0.00 70 1013.3
20260508081528 9 0 0.0 11.3 0.00 0.05 0.00 70 1013.3
20260508081008 9 0 0.0 11.3 0.00 0.05 0.00 71 1013.2
20260508080508 8 0 0.0 0.0 0.00 0.05 0.00 72 1013.1
20260508080029 8 0 0.0 0.0 0.00 0.05 0.00 72 1013.1
20260508075509 8 0 0.0 8.0 0.00 0.05 0.00 72 1013.1
20260508075011 8 0 0.0 8.0 0.00 0.05 0.00 71 1013.0
20260508074528 8 0 0.0 11.3 0.00 0.05 0.00 70 1012.8
20260508074008 8 0 0.0 11.3 0.00 0.05 0.00 70 1012.8
20260508073511 8 246 0.0 11.3 0.00 0.05 0.00 70 1012.8
20260508073028 8 0 0.0 8.0 0.00 0.05 0.00 70 1012.7
20260508072509 8 0 0.0 14.5 0.00 0.05 0.00 70 1012.6
20260508072010 8 0 0.0 14.5 0.00 0.05 0.00 71 1012.6
20260508071530 8 0 0.0 14.5 0.00 0.05 0.00 71 1012.5
20260508071010 8 224 0.0 16.1 0.00 0.05 0.00 71 1012.4
20260508070506 8 0 0.0 17.7 0.00 0.05 0.00 72 1012.3
20260508070028 8 280 3.2 17.7 0.00 0.05 0.00 71 1012.2
20260508065510 8 0 1.6 14.5 0.00 0.05 0.00 74 1012.3
20260508065010 8 0 0.0 11.3 0.00 0.05 0.00 75 1012.2
20260508064548 8 0 0.0 11.3 0.00 0.05 0.00 76 1012.1
20260508064009 8 249 1.6 12.9 0.00 0.05 0.00 76 1012.0
20260508063509 8 262 0.0 12.9 0.00 0.05 0.00 77 1012.1
20260508063030 8 0 0.0 11.3 0.00 0.05 0.00 78 1012.0
20260508062511 8 0 0.0 9.7 0.00 0.05 0.00 78 1012.0
20260508062009 8 275 1.6 9.7 0.00 0.05 0.00 78 1011.9
20260508061527 8 289 1.6 6.4 0.00 0.05 0.00 78 1011.9
20260508061015 8 0 0.0 8.0 0.00 0.05 0.00 79 1011.8
20260508060518 8 0 0.0 8.0 0.00 0.05 0.00 79 1011.7
20260508060035 8 0 0.0 3.2 0.00 0.05 0.00 80 1011.7
20260508055510 8 302 0.0 9.7 0.00 0.05 0.00 80 1011.6
20260508055012 8 0 0.0 11.3 0.00 0.05 0.00 80 1011.4
20260508054548 8 0 0.0 11.3 0.00 0.05 0.00 80 1011.3
20260508054010 8 0 0.0 0.0 0.00 0.05 0.00 81 1011.2
20260508053510 8 0 0.0 9.7 0.00 0.05 0.00 80 1011.2
20260508053028 8 0 0.0 9.7 0.00 0.05 0.00 80 1011.2
20260508052515 8 280 0.0 6.4 0.00 0.05 0.00 80 1011.1
20260508052010 8 0 0.0 4.8 0.00 0.05 0.00 80 1011.2
20260508051531 8 0 0.0 0.0 0.00 0.05 0.00 80 1011.1
20260508051008 8 0 0.0 11.3 0.00 0.05 0.00 79 1011.1
20260508050511 8 0 0.0 12.9 0.00 0.05 0.00 79 1011.0
20260508050036 8 232 1.6 12.9 0.00 0.05 0.00 79 1011.1
20260508045511 8 240 0.0 12.9 0.00 0.05 0.00 79 1011.0
20260508045010 8 241 0.0 8.0 0.00 0.05 0.00 79 1011.0
20260508044529 8 0 0.0 11.3 0.00 0.05 0.00 79 1010.8
20260508044012 7 0 0.0 12.9 0.00 0.05 0.00 79 1010.8
20260508043510 7 226 1.6 12.9 0.00 0.05 0.00 80 1010.7
20260508043041 7 0 0.0 11.3 0.00 0.05 0.00 80 1010.8
20260508042510 7 0 0.0 4.8 0.00 0.05 0.00 80 1010.8
20260508042010 7 0 0.0 4.8 0.00 0.05 0.00 80 1010.7
20260508041533 7 0 0.0 4.8 0.00 0.05 0.00 80 1010.6
20260508041012 7 0 0.0 3.2 0.00 0.05 0.00 79 1010.7
20260508040511 7 0 0.0 0.0 0.00 0.05 0.00 79 1010.6
20260508040029 7 0 0.0 0.0 0.00 0.05 0.00 78 1010.7
20260508035517 7 0 0.0 9.7 0.00 0.05 0.00 78 1010.7
20260508035012 7 0 0.0 9.7 0.00 0.05 0.00 78 1010.6
20260508034530 8 0 0.0 3.2 0.00 0.05 0.00 78 1010.6
20260508034010 8 0 0.0 3.2 0.00 0.05 0.00 77 1010.5
20260508033512 8 276 0.0 16.1 0.00 0.05 0.00 77 1010.3
20260508033032 8 0 0.0 16.1 0.00 0.05 0.00 77 1010.4
20260508032511 8 0 0.0 12.9 0.00 0.05 0.00 77 1010.3
20260508032010 8 208 1.6 12.9 0.00 0.05 0.00 77 1010.3
20260508031528 8 0 0.0 9.7 0.00 0.05 0.00 77 1010.3
20260508031010 8 0 0.0 6.4 0.00 0.05 0.00 77 1010.2
20260508030515 8 0 0.0 6.4 0.00 0.05 0.00 77 1010.3
20260508030032 8 0 0.0 8.0 0.00 0.05 0.00 77 1010.2
20260508025510 8 0 0.0 9.7 0.00 0.05 0.00 77 1010.2
20260508025037 8 0 0.0 9.7 0.00 0.05 0.00 76 1010.2
20260508024527 8 0 0.0 8.0 0.00 0.05 0.00 76 1010.4
20260508024011 8 0 0.0 11.3 0.00 0.05 0.00 76 1010.3
20260508023511 8 0 0.0 11.3 0.00 0.05 0.00 76 1010.5
20260508023031 8 0 0.0 12.9 0.00 0.05 0.00 76 1010.5
20260508022509 8 0 0.0 12.9 0.00 0.05 0.00 76 1010.4
20260508022014 8 0 0.0 16.1 0.00 0.05 0.00 76 1010.4
20260508021529 8 144 0.0 16.1 0.00 0.05 0.00 76 1010.4
20260508021017 8 172 1.6 16.1 0.00 0.05 0.00 76 1010.4
20260508020511 8 0 0.0 8.0 0.00 0.05 0.00 75 1010.5
20260508020030 8 0 0.0 9.7 0.00 0.05 0.00 75 1010.4
20260508015511 8 0 0.0 9.7 0.00 0.05 0.00 75 1010.4
20260508015017 8 0 0.0 9.7 0.00 0.05 0.00 75 1010.4
20260508014531 8 0 1.6 9.7 0.00 0.05 0.00 75 1010.5
20260508014013 8 0 0.0 11.3 0.00 0.05 0.00 75 1010.4
20260508013511 8 0 0.0 12.9 0.00 0.05 0.00 78 1010.4
20260508013027 8 163 0.0 12.9 0.00 0.05 0.00 75 1010.4
20260508012515 8 0 0.0 11.3 0.00 0.05 0.00 75 1010.4
20260508012013 8 0 0.0 11.3 0.00 0.05 0.00 75 1010.4
20260508011536 8 0 0.0 11.3 0.00 0.05 0.00 75 1010.3
20260508011015 8 0 0.0 11.3 0.00 0.05 0.00 75 1010.2
20260508010510 8 0 0.0 11.3 0.00 0.05 0.00 75 1010.2
20260508010037 8 0 1.6 11.3 0.00 0.05 0.00 75 1010.3
20260508005510 8 0 0.0 9.7 0.00 0.05 0.00 75 1010.4
20260508005012 8 0 0.0 9.7 0.00 0.05 0.00 74 1010.4
20260508004537 8 0 0.0 11.3 0.00 0.05 0.00 75 1010.5
20260508004010 8 0 0.0 11.3 0.00 0.05 0.00 75 1010.5
20260508003513 8 0 0.0 8.0 0.00 0.05 0.00 74 1010.4
20260508003027 8 0 0.0 11.3 0.00 0.05 0.00 74 1010.3
20260508002510 8 167 0.0 11.3 0.00 0.05 0.00 74 1010.4
20260508002014 8 0 0.0 16.1 0.00 0.05 0.00 74 1010.4
20260508001530 8 0 0.0 16.1 0.00 0.05 0.00 74 1010.2
20260508001011 8 0 0.0 16.1 0.00 0.05 0.00 75 1010.1
20260508000519 8 149 1.6 14.5 0.00 0.05 0.00 75 1010.3
20260508000030 8 0 0.0 14.5 0.00 0.05 0.00 75 1010.2
20260507235511 8 0 0.0 11.3 0.00 0.05 0.00 75 1010.3
20260507235012 8 0 0.0 1.6 0.00 0.05 0.00 75 1010.3
20260507234538 8 0 0.0 1.6 0.00 0.05 0.00 75 1010.3
20260507234011 8 0 0.0 11.3 0.00 0.05 0.00 76 1010.3
20260507233512 8 0 0.0 11.3 0.00 0.05 0.00 76 1010.4
20260507233033 8 0 0.0 11.3 0.00 0.05 0.00 76 1010.4
20260507232515 8 0 0.0 11.3 0.00 0.05 0.00 76 1010.4
20260507232013 8 0 0.0 6.4 0.00 0.05 0.00 76 1010.4
20260507231534 8 0 0.0 1.6 0.00 0.05 0.00 76 1010.5
20260507231011 8 0 0.0 9.7 0.00 0.05 0.00 75 1010.6
20260507230512 8 0 0.0 12.9 0.00 0.05 0.00 75 1010.4
20260507230029 8 0 1.6 12.9 0.00 0.05 0.00 75 1010.5
20260507225511 7 0 0.0 8.0 0.00 0.05 0.05 76 1010.5
20260507225012 7 0 0.0 4.8 0.00 0.05 0.05 76 1010.5
20260507224529 7 0 0.0 4.8 0.00 0.05 0.05 75 1010.6
20260507224009 7 0 0.0 6.4 0.00 0.05 0.05 75 1010.5
20260507223518 7 0 0.0 9.7 0.00 0.05 0.05 76 1010.5
20260507223028 7 0 0.0 11.3 0.00 0.05 0.05 76 1010.6
20260507222521 7 0 0.0 11.3 0.00 0.05 0.05 78 1010.6
20260507222014 6 159 0.0 14.5 0.00 0.05 0.05 80 1010.5
20260507221531 5 0 1.6 14.5 0.00 0.05 0.05 82 1010.6
20260507221016 5 0 0.0 0.0 0.00 0.05 0.05 82 1010.5
20260507220519 5 0 0.0 0.0 0.00 0.05 0.05 81 1010.7
20260507220028 5 0 0.0 0.0 0.00 0.05 0.05 78 1010.8
20260507215514 5 0 0.0 0.0 0.00 0.05 0.05 78 1010.8
20260507215016 6 0 0.0 0.0 0.00 0.05 0.05 78 1010.5
20260507214530 6 0 0.0 0.0 0.00 0.05 0.05 78 1010.5
20260507214014 6 0 0.0 0.0 0.00 0.05 0.05 78 1010.7
20260507213512 6 0 0.0 9.7 0.00 0.05 0.05 79 1010.8
20260507213027 6 0 0.0 9.7 0.00 0.05 0.05 81 1010.7
20260507212511 6 0 0.0 1.6 0.00 0.05 0.05 82 1010.7
20260507212017 6 0 0.0 0.0 0.00 0.05 0.05 79 1010.7
20260507211541 6 0 0.0 0.0 0.00 0.05 0.05 77 1010.7
20260507211014 6 0 0.0 0.0 0.00 0.05 0.05 76 1010.8
20260507210511 7 0 0.0 0.0 0.00 0.05 0.05 76 1010.8
20260507210033 7 0 0.0 0.0 0.00 0.05 0.05 76 1010.8
20260507205513 7 0 0.0 0.0 0.00 0.05 0.05 76 1010.8
20260507205012 7 0 0.0 0.0 0.00 0.05 0.05 76 1010.8
20260507204530 8 0 0.0 0.0 0.00 0.05 0.05 76 1010.7
20260507204010 8 0 0.0 0.0 0.00 0.05 0.05 76 1010.5
20260507203511 8 0 0.0 4.8 0.00 0.05 0.05 76 1010.4
20260507203029 8 0 0.0 11.3 0.00 0.05 0.05 76 1010.2
20260507202511 8 0 0.0 11.3 0.00 0.05 0.05 75 1010.0
20260507202017 8 142 0.0 12.9 0.00 0.05 0.05 74 1010.0
20260507201530 8 0 1.6 12.9 0.00 0.05 0.05 74 1010.1
20260507201007 8 0 0.0 6.4 0.00 0.05 0.05 74 1010.0
20260507200509 9 0 0.0 6.4 0.00 0.05 0.05 73 1010.0
20260507200026 9 0 0.0 3.2 0.00 0.05 0.05 73 1009.9
20260507195507 9 0 0.0 3.2 0.00 0.05 0.05 73 1010.0
20260507195008 10 0 0.0 0.0 0.00 0.05 0.05 73 1010.0
20260507194530 10 0 0.0 0.0 0.00 0.05 0.05 72 1010.1
20260507194007 10 0 0.0 8.0 0.00 0.05 0.05 71 1010.0
20260507193507 10 0 0.0 8.0 0.00 0.05 0.05 71 1010.0
20260507193028 10 0 0.0 8.0 0.00 0.05 0.05 70 1010.1
20260507192510 10 0 0.0 8.0 0.00 0.05 0.05 71 1010.2
20260507192010 10 0 0.0 8.0 0.00 0.05 0.05 71 1010.1
20260507191530 10 0 0.0 8.0 0.00 0.05 0.05 71 1010.0
20260507191008 10 0 0.0 11.3 0.00 0.05 0.05 70 1010.2
20260507190515 10 0 0.0 11.3 0.00 0.05 0.05 70 1010.1
20260507190028 10 152 0.0 14.5 0.00 0.05 0.05 71 1010.2
20260507185509 10 0 0.0 14.5 0.00 0.05 0.05 71 1010.2
20260507185011 10 0 0.0 11.3 0.00 0.05 0.05 71 1010.1
20260507184526 10 0 0.0 11.3 0.00 0.05 0.05 71 1010.1
20260507184007 10 0 0.0 11.3 0.00 0.05 0.05 71 1010.2
20260507183513 10 0 0.0 9.7 0.00 0.05 0.05 71 1010.1
20260507183027 10 162 0.0 16.1 0.00 0.05 0.05 70 1010.2
20260507182507 10 0 0.0 16.1 0.00 0.05 0.05 70 1010.1
20260507182011 10 163 1.6 14.5 0.00 0.05 0.05 70 1010.0
20260507181528 10 159 3.2 14.5 0.00 0.05 0.05 71 1010.0
20260507181014 10 0 0.0 16.1 0.00 0.05 0.05 72 1009.9
20260507180510 10 171 4.8 16.1 0.00 0.05 0.05 72 1009.9
20260507180029 10 0 0.0 16.1 0.00 0.05 0.05 73 1009.9
20260507175519 10 0 1.6 16.1 0.00 0.05 0.05 73 1010.0
20260507175009 10 0 1.6 11.3 0.00 0.05 0.05 72 1010.0
20260507174544 10 0 1.6 17.7 0.00 0.05 0.05 72 1010.0
20260507174017 10 0 1.6 19.3 0.00 0.05 0.05 71 1010.0
20260507173514 10 150 3.2 19.3 0.00 0.05 0.05 71 1010.0
20260507173029 10 155 3.2 14.5 0.00 0.05 0.05 73 1010.0
20260507172510 10 165 0.0 14.5 0.00 0.05 0.05 73 1009.9
20260507172019 10 0 1.6 14.5 0.00 0.05 0.05 72 1009.9
20260507171541 10 159 1.6 14.5 0.00 0.05 0.05 72 1009.9
20260507171011 10 0 1.6 14.5 0.00 0.05 0.05 72 1010.0
20260507170509 10 156 1.6 17.7 0.00 0.05 0.05 72 1009.9
20260507170028 10 0 4.8 17.7 0.00 0.05 0.05 72 1010.1
20260507165511 10 155 0.0 12.9 0.00 0.05 0.05 72 1010.1
20260507165010 10 0 1.6 12.9 0.00 0.05 0.05 71 1010.1
20260507164528 10 159 1.6 14.5 0.00 0.05 0.05 72 1010.1